Location: Columbus
(29.5618°N, 96.6770°W)
Time: 08:07:51
(UTC-05:00)

Daily predictions for brighter satellites

Satellite Brightness Start Highest point End
(mag) Time Altitude Azimuth Time Altitude Azimuth Time Altitude Azimuth
BREEZE-M DEB (TANK) 3.6 20:00:57 10° WSW 20:03:43 64° NW 20:10:59 10° NE
Helios 1A 3.4 20:07:30 10° SE 20:11:24 41° ENE 20:15:21 10° N
Cosmos 2369 4.2 20:06:57 10° SSW 20:12:35 70° WNW 20:18:16 10° NNE
Meteor 2-4 Rocket 3.9 20:07:41 10° N 20:13:37 84° E 20:19:33 10° S
Meteor 1-29 2.9 20:10:11 10° NNE 20:13:39 68° E 20:17:07 10° S
Resurs 01 Rocket 1.9 20:10:19 10° SSE 20:14:34 48° ENE 20:18:50 10° N
BREEZE-M DEB (TANK) 3.5 20:04:11 10° NW 20:15:53 78° SW 20:19:19 10° SE
Cosmos 1656 3.7 20:11:42 10° S 20:17:18 68° ESE 20:22:49 10° NNE
Meteor 2-16 Rocket 4.4 20:11:34 10° S 20:17:38 82° E 20:23:43 10° N
Cosmos 1461 2.9 20:14:53 10° NNW 20:18:47 53° ENE 20:22:36 10° SE
NOSS 3-4 (A) 3.9 20:13:11 10° NNW 20:20:21 74° ENE 20:27:54 10° SE
NOSS 3-4 (C) 3.9 20:13:19 10° NNW 20:20:29 73° ENE 20:28:01 10° SE
CZ-4B DEB 4.1 20:18:44 10° SE 20:21:21 23° ENE 20:24:00 10° NNE
Cosmos 1777 Rocket 4.4 20:18:04 10° NNW 20:23:19 71° WSW 20:28:33 10° S
CZ-3A R/B 4.5 20:10:13 10° W 20:28:47 35° SW 20:33:07 10° SSE
NOAA 12 4.3 20:24:11 10° S 20:29:24 75° WSW 20:34:38 10° NNW
Cosmos 1500 3.8 20:33:52 10° SSE 20:37:15 33° E 20:40:39 10° NNE
Lacrosse 5 3.4 20:35:20 10° N 20:39:06 20° NE 20:41:56 13° E
Fermi 4.2 20:35:13 10° WSW 20:39:11 48° S 20:42:00 18° ESE
Spot 2 Rocket 3.6 20:34:12 10° SSE 20:39:18 84° WSW 20:44:24 10° NNW
Iridium 4 Rocket 4.0 20:36:39 10° NNE 20:40:44 29° E 20:44:11 12° SE
Cosmos 1975 2.8 20:36:44 10° S 20:40:47 68° E 20:44:52 10° NNE
Cosmos 2322 Rocket 3.9 20:43:35 12° ENE 20:43:35 12° ENE 20:44:32 10° ENE
CZ-2D R/B 4.0 20:39:07 12° SE 20:42:17 34° ENE 20:45:49 10° N
EO 1 Delta rocket 4.2 20:38:33 10° NNE 20:43:35 65° E 20:49:48 10° S
Cosmos 2227 Rocket 2.2 20:38:41 10° NNW 20:44:22 86° ENE 20:50:00 10° SSE
OTV 4 0.4 20:43:04 10° WNW 20:46:01 79° SSW 20:47:34 25° ESE
Lacrosse 5 rocket 0.9 20:44:51 10° NNW 20:48:30 76° NE 20:50:50 20° SE
Hubble Space Telescope 3.0 20:46:44 10° WSW 20:49:19 16° SSW 20:51:54 10° SSE
Cosmos 2084 4.2 20:46:01 10° N 20:49:50 35° ENE 20:51:53 22° ESE
Cosmos 2173 Rocket 4.5 20:46:49 10° SSE 20:52:36 38° E 20:58:21 10° NNE
USA 186 2.4 20:53:34 30° E 20:54:03 32° ENE 20:56:40 10° NNE
FengYun 1-2 T 4.3 20:49:04 10° SSE 20:54:43 89° W 21:00:21 10° NNW
Cosmos 1937 Rocket 4.5 20:51:38 10° N 20:56:12 29° ENE 20:58:05 23° ESE
Cosmos 2297 Rocket 2.1 20:53:23 10° NNW 20:59:03 81° ENE 21:04:19 12° SSE
Cosmos 1605 Rocket 4.5 20:53:12 10° SSW 20:59:28 64° W 21:05:42 10° N
Cosmos 2360 4.4 20:55:45 10° S 21:01:09 46° ESE 21:06:36 10° NNE
ALOS 2.2 20:56:50 10° SSE 21:01:29 76° ENE 21:06:09 10° N
Cosmos 1626 Rocket 3.4 20:57:13 10° N 21:01:35 75° E 21:05:48 10° S
Cosmos 2082 3.9 20:56:18 10° NNW 21:01:54 70° WSW 21:07:28 10° S
Cosmos 220 Rocket 3.8 20:58:32 10° NNW 21:02:46 83° ENE 21:05:52 18° SSE
Cosmos 2298 Rocket 4.1 20:59:40 10° N 21:04:54 57° ENE 21:08:05 23° SE
Cosmos 1515 3.6 21:04:18 10° N 21:08:06 62° E 21:09:45 31° SSE
ERS-1 Rocket 3.9 21:08:47 26° E 21:09:28 27° ENE 21:13:40 10° NNE
OAO 2 Rocket 4.0 21:05:03 10° WNW 21:09:51 47° N 21:12:34 24° ENE
Cosmos 2100 Rocket 4.0 21:04:57 10° S 21:11:09 63° E 21:17:18 10° NNE
Cosmos 1602 Rocket 3.6 21:07:51 10° N 21:12:17 79° W 21:16:34 11° S
Cosmos 1763 Rocket 3.3 21:16:35 10° S 21:21:41 80° ESE 21:26:46 10° NNE
Cosmos 1743 2.6 21:20:18 37° S 21:21:44 72° E 21:25:38 10° N
Tiangong 1 3.3 21:19:41 10° NNW 21:21:38 16° NNE 21:21:38 16° NNE
Cosmos 1939 Rocket 4.4 21:23:17 24° NE 21:23:17 24° NE 21:25:40 10° NNE
Cosmos 1697 Rocket 4.2 21:20:48 10° SW 21:26:01 38° WNW 21:31:15 10° N
Cosmos 2061 Rocket 3.9 21:21:23 10° S 21:27:41 79° E 21:33:56 10° N
Cosmos 2150 Rocket 3.9 21:24:36 10° NNW 21:29:46 87° ENE 21:31:50 38° SSE
Cosmos 1459 Rocket 3.9 21:28:24 10° S 21:34:27 87° W 21:40:34 10° N
Cosmos 1606 Rocket 3.4 21:38:26 78° SE 21:38:38 81° E 21:43:04 10° N
Cosmos 1066 Rocket 4.3 21:34:01 10° N 21:39:46 81° W 21:43:02 28° S
Cosmos 1898 Rocket 3.7 21:34:38 10° NNW 21:39:53 69° WSW 21:42:03 35° S
SL-16 R/B 2.8 21:41:43 38° ENE 21:41:43 38° ENE 21:45:28 10° NNE
Cosmos 1725 Rocket 4.2 21:42:59 46° E 21:42:59 46° E 21:48:34 10° NNE
Cosmos 2098 Rocket 4.0 21:43:33 44° SSE 21:45:30 60° E 21:51:21 10° NNE
Cosmos 841 Rocket 3.8 21:41:47 10° SSW 21:46:59 65° WNW 21:52:11 10° N
Cosmos 1980 Rocket 3.5 21:45:12 10° SW 21:50:29 40° WNW 21:55:49 10° N
RESURS DK-1 2.9 21:50:39 10° NNW 21:54:08 56° WNW 21:54:08 56° WNW
DELTA 2 R/B (1) 3.4 21:49:34 10° WNW 21:55:09 80° SSW 21:55:21 78° S
Cosmos 1726 Rocket 4.3 22:01:45 50° NNW 22:01:45 50° NNW 22:05:13 10° N
CZ-3 Stage 3 4.0 21:01:35 10° W 22:03:07 73° SSW 22:05:23 52° SE
Milstar 3 Cent rocket 4.0 21:52:04 10° W 22:14:50 76° SSW 22:18:32 53° SE
Cosmos 2263 Rocket 4.2 22:16:41 10° NNE 22:18:17 16° NNE 22:18:17 16° NNE
Lacrosse 5 2.9 22:17:22 10° NW 22:21:09 42° W 22:21:09 42° W
SPOT 5 4.5 22:27:02 29° N 22:27:02 29° N 22:29:19 10° N
Cosmos 2322 Rocket 2.7 22:25:05 55° WNW 22:25:15 55° WNW 22:30:46 10° N
Envisat 4.0 22:29:51 43° NW 22:29:51 43° NW 22:33:36 10° NNW
H-2A R/B 4.5 22:32:10 17° NNW 22:32:10 17° NNW 22:33:12 10° NNW
